K3BAY-1 Weather Reports


Display with metric or nautical units.
time (UTC)temp
F
wind
direction
speed
MPH
gust
MPH
rain 1hr
in
rain 24hr
in
rain mn
in
humidity
%
barometer
mb
20260504050721 50 73 0.0 0.0 0.00 0.00 0.00 60 1013.9
20260504050218 50 66 0.0 0.0 0.00 0.00 0.00 60 1013.9
20260504045716 50 64 0.0 0.0 0.00 0.00 0.00 58 1013.9
20260504045215 50 72 0.0 1.0 0.00 0.00 0.00 59 1013.9
20260504044714 51 68 0.0 0.0 0.00 0.00 0.00 61 1013.9
20260504044211 51 51 0.0 1.0 0.00 0.00 0.00 58 1013.6
20260504043708 51 77 0.0 1.0 0.00 0.00 0.00 58 1013.6
20260504043204 51 21 1.0 1.0 0.00 0.00 0.00 59 1013.6
20260504042702 51 82 0.0 2.0 0.00 0.00 0.00 60 1013.6
20260504042158 51 0 0.0 1.0 0.00 0.00 0.00 60 1013.6
20260504041654 51 81 1.0 2.0 0.00 0.00 0.00 59 1013.6
20260504041150 51 36 0.0 2.0 0.00 0.00 0.00 60 1013.9
20260504040648 51 10 0.0 1.0 0.00 0.00 0.00 61 1013.6
20260504040144 51 56 0.0 1.0 0.00 0.00 0.00 61 1013.2
20260504035641 51 74 0.0 0.0 0.00 0.00 0.00 61 1013.6
20260504035138 51 70 2.0 3.0 0.00 0.00 0.00 59 1013.6
20260504034636 51 77 0.0 1.0 0.00 0.00 0.00 58 1013.2
20260504034132 51 56 0.0 1.0 0.00 0.00 0.00 61 1013.2
20260504033630 50 31 0.0 1.0 0.00 0.00 0.00 64 1013.2
20260504033127 49 84 0.0 0.0 0.00 0.00 0.00 66 1013.2
20260504032624 49 81 0.0 0.0 0.00 0.00 0.00 64 1013.2
20260504032121 48 81 0.0 0.0 0.00 0.00 0.00 67 1013.2
20260504031618 48 82 0.0 0.0 0.00 0.00 0.00 67 1012.9
20260504031114 48 85 0.0 0.0 0.00 0.00 0.00 64 1012.9
20260504030611 48 85 0.0 0.0 0.00 0.00 0.00 65 1012.9
20260504030108 47 82 0.0 0.0 0.00 0.00 0.00 68 1013.2
20260504025605 48 82 0.0 0.0 0.00 0.00 0.00 68 1013.2
20260504025102 47 82 0.0 0.0 0.00 0.00 0.00 68 1012.9
20260504024559 48 84 0.0 0.0 0.00 0.00 0.00 68 1012.9
20260504024055 48 79 0.0 0.0 0.00 0.00 0.00 67 1012.6
20260504023552 48 78 0.0 0.0 0.00 0.00 0.00 66 1012.6
20260504023048 48 85 0.0 0.0 0.00 0.00 0.00 65 1012.6
20260504022544 48 81 0.0 0.0 0.00 0.00 0.00 65 1012.6
20260504022040 48 81 0.0 0.0 0.00 0.00 0.00 64 1012.6
20260504021538 48 81 0.0 0.0 0.00 0.00 0.00 63 1012.9
20260504021035 48 79 0.0 0.0 0.00 0.00 0.00 62 1012.6
20260504020532 48 81 0.0 0.0 0.00 0.00 0.00 61 1012.9
20260504020028 48 80 0.0 0.0 0.00 0.00 0.00 61 1012.6
20260504015525 49 81 0.0 0.0 0.00 0.00 0.00 60 1012.9
20260504015021 49 81 0.0 0.0 0.00 0.00 0.00 61 1012.9
20260504014517 49 81 0.0 0.0 0.00 0.00 0.00 60 1012.9
20260504014014 49 81 0.0 0.0 0.00 0.00 0.00 60 1012.9
20260504013512 49 81 0.0 0.0 0.00 0.00 0.00 59 1012.9
20260504013009 49 82 0.0 0.0 0.00 0.00 0.00 59 1012.9
20260504012506 50 77 0.0 0.0 0.00 0.00 0.00 59 1013.2
20260504012004 50 81 0.0 0.0 0.00 0.00 0.00 56 1012.9
20260504011500 50 79 0.0 0.0 0.00 0.00 0.00 56 1013.2
20260504010956 51 80 0.0 0.0 0.00 0.00 0.00 56 1013.2
20260504010452 51 81 0.0 0.0 0.00 0.00 0.00 55 1012.9
20260504005948 51 80 0.0 0.0 0.00 0.00 0.00 54 1012.9
20260504005445 51 81 0.0 0.0 0.00 0.00 0.00 53 1012.9
20260504004943 52 81 0.0 0.0 0.00 0.00 0.00 51 1012.9
20260504004440 53 83 0.0 0.0 0.00 0.00 0.00 51 1012.9
20260504003937 53 83 0.0 0.0 0.00 0.00 0.00 50 1012.9
20260504003433 53 77 0.0 0.0 0.00 0.00 0.00 49 1012.9
20260504002930 53 82 0.0 0.0 0.00 0.00 0.00 51 1012.9
20260504002427 54 80 0.0 0.0 0.00 0.00 0.00 50 1013.2
20260504001925 54 81 0.0 0.0 0.00 0.00 0.00 49 1013.2
20260504001422 55 82 0.0 0.0 0.00 0.00 0.00 47 1013.2
20260504000918 55 72 0.0 0.0 0.00 0.00 0.00 48 1013.2
20260504000416 56 74 0.0 0.0 0.00 0.00 0.00 46 1013.2
20260503235913 57 81 0.0 0.0 0.00 0.00 0.00 46 1013.2
20260503235411 57 80 0.0 0.0 0.00 0.00 0.00 45 1013.2
20260503234908 59 83 0.0 0.0 0.00 0.00 0.00 42 1013.2
20260503234405 59 82 0.0 0.0 0.00 0.00 0.00 40 1013.6
20260503233903 60 87 0.0 0.0 0.00 0.00 0.00 37 1013.2
20260503233359 61 69 0.0 0.0 0.00 0.00 0.00 36 1013.6
20260503232856 61 24 0.0 0.0 0.00 0.00 0.00 35 1013.2
20260503232353 61 86 0.0 6.0 0.00 0.00 0.00 35 1013.6
20260503231851 62 79 0.0 0.0 0.00 0.00 0.00 35 1013.6
20260503231347 64 65 0.0 0.0 0.00 0.00 0.00 34 1013.6
20260503230844 64 87 1.0 3.0 0.00 0.00 0.00 31 1013.6
20260503230340 65 57 0.0 2.0 0.00 0.00 0.00 32 1013.2
20260503225839 65 76 0.0 0.0 0.00 0.00 0.00 32 1013.2
20260503225334 64 78 0.0 0.0 0.00 0.00 0.00 32 1013.2
20260503224831 63 63 0.0 2.0 0.00 0.00 0.00 32 1013.6
20260503224328 64 83 0.0 2.0 0.00 0.00 0.00 33 1013.6
20260503223826 65 54 0.0 4.0 0.00 0.00 0.00 31 1013.6
20260503223323 65 52 0.0 0.0 0.00 0.00 0.00 31 1013.6
20260503222819 65 44 1.0 4.0 0.00 0.00 0.00 30 1013.6
20260503222317 64 100 0.0 6.0 0.00 0.00 0.00 30 1013.6
20260503221815 65 49 0.0 7.0 0.00 0.00 0.00 31 1013.6
20260503221314 65 82 2.0 6.0 0.00 0.00 0.00 33 1013.6
20260503220809 64 56 1.0 7.0 0.00 0.00 0.00 32 1013.9
20260503220306 66 71 1.0 2.0 0.00 0.00 0.00 30 1013.6
20260503215803 65 67 0.0 3.0 0.00 0.00 0.00 30 1013.6
20260503215300 65 57 1.0 7.0 0.00 0.00 0.00 30 1013.9
20260503214758 65 74 0.0 1.0 0.00 0.00 0.00 32 1013.9
20260503214255 65 92 0.0 4.0 0.00 0.00 0.00 33 1013.9
20260503213752 64 77 0.0 6.0 0.00 0.00 0.00 33 1013.9
20260503213250 66 97 0.0 6.0 0.00 0.00 0.00 34 1014.2
20260503212746 64 76 0.0 2.0 0.00 0.00 0.00 32 1013.6
20260503212244 67 98 2.0 4.0 0.00 0.00 0.00 33 1013.9
20260503211741 66 58 0.0 0.0 0.00 0.00 0.00 30 1013.9
20260503211238 65 47 0.0 2.0 0.00 0.00 0.00 31 1013.9
20260503210733 65 79 0.0 4.0 0.00 0.00 0.00 31 1013.9
20260503210231 66 73 0.0 2.0 0.00 0.00 0.00 31 1014.2
20260503205726 66 75 0.0 1.0 0.00 0.00 0.00 32 1014.2
20260503205222 64 93 0.0 2.0 0.00 0.00 0.00 33 1014.2
20260503204719 64 139 1.0 6.0 0.00 0.00 0.00 34 1014.2
20260503204217 63 110 2.0 4.0 0.00 0.00 0.00 32 1014.6
20260503203714 64 47 0.0 2.0 0.00 0.00 0.00 31 1014.2
20260503203211 64 143 1.0 7.0 0.00 0.00 0.00 31 1014.6
20260503202708 65 51 3.0 7.0 0.00 0.00 0.00 31 1014.6
20260503202206 64 108 3.0 3.0 0.00 0.00 0.00 34 1014.9
20260503201704 63 90 2.0 6.0 0.00 0.00 0.00 33 1014.9
20260503201201 64 60 4.0 6.0 0.00 0.00 0.00 34 1015.3
20260503200657 64 65 0.0 3.0 0.00 0.00 0.00 33 1014.9
20260503200154 63 69 1.0 4.0 0.00 0.00 0.00 34 1015.3
20260503195651 62 84 0.0 6.0 0.00 0.00 0.00 35 1015.3
20260503195148 63 74 1.0 6.0 0.00 0.00 0.00 35 1015.3
20260503194644 65 74 1.0 3.0 0.00 0.00 0.00 36 1015.3
20260503194140 61 86 0.0 3.0 0.00 0.00 0.00 34 1015.3
20260503193637 62 27 2.0 2.0 0.00 0.00 0.00 34 1015.6
20260503193132 64 13 3.0 6.0 0.00 0.00 0.00 34 1015.9
20260503192628 63 79 0.0 2.0 0.00 0.00 0.00 35 1015.6
20260503192124 64 32 0.0 2.0 0.00 0.00 0.00 35 1015.9
20260503191621 66 64 1.0 2.0 0.00 0.00 0.00 31 1015.9
20260503191118 62 96 2.0 4.0 0.00 0.00 0.00 38 1015.9
20260503190615 63 78 1.0 4.0 0.00 0.00 0.00 35 1015.9
20260503190112 61 117 3.0 7.0 0.00 0.00 0.00 37 1015.6
20260503185609 62 54 2.0 4.0 0.00 0.00 0.00 38 1015.6
20260503185108 62 49 0.0 3.0 0.00 0.00 0.00 37 1015.6
20260503184604 61 67 0.0 4.0 0.00 0.00 0.00 36 1015.9
20260503184101 61 91 1.0 8.0 0.00 0.00 0.00 34 1015.9
20260503183558 61 97 3.0 8.0 0.00 0.00 0.00 40 1015.9
20260503183055 60 74 1.0 6.0 0.00 0.00 0.00 39 1015.9
20260503182553 60 130 4.0 9.0 0.00 0.00 0.00 38 1015.9
20260503182051 62 157 3.0 4.0 0.00 0.00 0.00 38 1015.9
20260503181548 62 53 1.0 3.0 0.00 0.00 0.00 38 1015.6
20260503181044 61 37 2.0 3.0 0.00 0.00 0.00 34 1015.3
20260503180541 60 139 3.0 4.0 0.00 0.00 0.00 36 1014.9
20260503180038 59 115 1.0 11.0 0.00 0.00 0.00 40 1014.6
20260503175536 60 59 1.0 4.0 0.00 0.00 0.00 39 1014.9
20260503175033 60 117 3.0 8.0 0.00 0.00 0.00 39 1014.6
20260503174530 58 52 1.0 9.0 0.00 0.00 0.00 37 1014.6
20260503174026 59 120 6.0 10.0 0.00 0.00 0.00 42 1014.6
20260503173521 61 60 2.0 3.0 0.00 0.00 0.00 40 1014.9
20260503173018 61 93 3.0 9.0 0.00 0.00 0.00 35 1014.6
20260503172516 59 80 2.0 3.0 0.00 0.00 0.00 37 1014.9
20260503172012 59 89 2.0 4.0 0.00 0.00 0.00 38 1014.9
20260503171509 57 132 3.0 10.0 0.00 0.00 0.00 42 1014.9
20260503171007 59 122 6.0 9.0 0.00 0.00 0.00 39 1015.3
20260503170503 59 102 4.0 6.0 0.00 0.00 0.00 38 1015.3
20260503150855 52 146 4.0 7.0 0.00 0.00 0.00 50 1014.9
20260503150351 53 119 9.0 10.0 0.00 0.00 0.00 51 1014.6
20260503131245 49 74 4.0 6.0 0.00 0.00 0.00 57 1015.3
20260503130742 49 107 2.0 9.0 0.00 0.00 0.00 58 1013.9
20260503130240 49 109 7.0 10.0 0.00 0.00 0.00 58 1013.6
20260503120206 46 62 3.0 6.0 0.00 0.00 0.00 63 1012.6
20260503110633 43 72 1.0 4.0 0.00 0.00 0.00 70 1012.2
20260503110130 43 137 3.0 6.0 0.00 0.00 0.00 70 1012.6
20260503081440 43 93 0.0 0.0 0.00 0.00 0.00 75 1012.2
20260503080938 43 101 2.0 2.0 0.00 0.00 0.00 74 1011.9
20260503080434 43 90 2.0 3.0 0.00 0.00 0.00 75 1012.2
20260503072909 44 75 1.0 2.0 0.00 0.00 0.00 74 1011.5
20260503072402 44 74 0.0 2.0 0.00 0.00 0.00 73 1011.5
20260503071858 44 79 1.0 2.0 0.00 0.00 0.00 73 1011.5
20260503071356 45 38 1.0 4.0 0.00 0.00 0.00 72 1011.5
20260503070851 45 358 2.0 4.0 0.00 0.00 0.00 73 1011.5
20260503070349 45 55 1.0 4.0 0.00 0.00 0.00 73 1011.9